Location: Newark
(44.6028°N, 124.0883°W)
Time: 05:13:57
(UTC+00:00)

Vanguard 1 Rocket - Pass Details

Date: 31 October 2019
Orbit: 651 x 4225 km, 34.3° (Epoch: 10 November)

Event Time Altitude Azimuth Distance (km) Brightness Sun altitude
Rises 14:09:05 0° 191° (S) 3,573 10.5 -8.3°
Reaches altitude 10° 14:12:29 10° 168° (SSE) 3,015 10.4 -7.7°
Maximum altitude 14:16:43 16° 133° (SE) 3,108 11.1 -7.0°
Drops below altitude 10° 14:22:24 10° 100° (E) 4,284 12.7 -6.0°
Sets 14:28:57 0° 83° (E) 6,103 13.1 -4.8°
